TimeCST,TemperatureF,Dew PointF,Humidity,Sea Level PressureIn,VisibilityMPH,Wind Direction,Wind SpeedMPH,Gust SpeedMPH,PrecipitationIn,Events,Conditions,WindDirDegrees,DateUTC
12:15 AM,6.8,1.4,79,29.83,9.0,NW,20.7,27.6,N/A,,Overcast,310,2013-01-31 06:15:00
12:35 AM,5.0,-0.4,78,29.84,10.0,NW,21.9,27.6,N/A,,Mostly Cloudy,310,2013-01-31 06:35:00
12:55 AM,5.0,-0.4,78,29.84,10.0,WNW,19.6,-,N/A,,Clear,300,2013-01-31 06:55:00
1:15 AM,5.0,-2.2,72,29.83,10.0,WNW,18.4,-,N/A,,Clear,300,2013-01-31 07:15:00
1:35 AM,3.2,-2.2,78,29.84,10.0,WNW,21.9,-,N/A,,Clear,290,2013-01-31 07:35:00
1:55 AM,3.2,-2.2,78,29.84,10.0,WNW,19.6,-,N/A,,Clear,290,2013-01-31 07:55:00
2:15 AM,3.2,-2.2,78,29.85,10.0,WNW,21.9,-,N/A,,Clear,300,2013-01-31 08:15:00
2:35 AM,3.2,-2.2,78,29.86,10.0,WNW,21.9,28.8,N/A,,Clear,300,2013-01-31 08:35:00
2:55 AM,1.4,-4.0,78,29.86,10.0,WNW,21.9,28.8,N/A,,Clear,300,2013-01-31 08:55:00
3:15 AM,1.4,-4.0,78,29.86,10.0,WNW,23.0,-,N/A,,Clear,300,2013-01-31 09:15:00
3:35 AM,1.4,-5.8,72,29.86,10.0,WNW,21.9,-,N/A,,Clear,300,2013-01-31 09:35:00
3:55 AM,1.4,-5.8,72,29.86,10.0,WNW,19.6,29.9,N/A,,Clear,300,2013-01-31 09:55:00
4:15 AM,1.4,-5.8,72,29.88,10.0,NW,21.9,28.8,N/A,,Clear,310,2013-01-31 10:15:00
4:35 AM,1.4,-7.6,66,29.89,10.0,WNW,20.7,28.8,N/A,,Clear,300,2013-01-31 10:35:00
4:55 AM,1.4,-7.6,66,29.90,10.0,NW,20.7,29.9,N/A,,Mostly Cloudy,310,2013-01-31 10:55:00
5:15 AM,-0.4,-7.6,72,29.90,10.0,NW,24.2,32.2,N/A,,Overcast,310,2013-01-31 11:15:00
5:35 AM,-0.4,-7.6,72,29.91,10.0,NW,21.9,32.2,N/A,,Overcast,320,2013-01-31 11:35:00
5:55 AM,-0.4,-7.6,72,29.91,10.0,NW,23.0,-,N/A,,Overcast,310,2013-01-31 11:55:00
6:15 AM,-0.4,-7.6,72,29.93,10.0,NW,20.7,27.6,N/A,,Overcast,310,2013-01-31 12:15:00
6:35 AM,-0.4,-7.6,72,29.94,10.0,NW,20.7,29.9,N/A,,Overcast,320,2013-01-31 12:35:00
6:55 AM,-0.4,-9.4,66,29.95,10.0,NW,20.7,29.9,N/A,,Overcast,320,2013-01-31 12:55:00
7:15 AM,-0.4,-7.6,72,29.96,10.0,NW,25.3,-,N/A,,Overcast,310,2013-01-31 13:15:00
7:35 AM,-0.4,-9.4,66,29.96,10.0,NW,20.7,28.8,N/A,,Overcast,310,2013-01-31 13:35:00
7:55 AM,-2.2,-9.4,71,29.98,10.0,NW,27.6,34.5,N/A,,Mostly Cloudy,320,2013-01-31 13:55:00
8:15 AM,-2.2,-9.4,71,29.99,8.0,NW,25.3,32.2,N/A,,Scattered Clouds,310,2013-01-31 14:15:00
8:35 AM,-2.2,-9.4,71,29.99,7.0,NW,24.2,-,N/A,,Clear,310,2013-01-31 14:35:00
8:55 AM,-0.4,-7.6,72,30.01,8.0,NW,25.3,31.1,N/A,,Clear,320,2013-01-31 14:55:00
9:15 AM,-0.4,-9.4,66,30.02,8.0,NW,26.5,34.5,N/A,,Partly Cloudy,320,2013-01-31 15:15:00
9:35 AM,-0.4,-9.4,66,30.05,7.0,NW,26.5,33.4,N/A,,Partly Cloudy,320,2013-01-31 15:35:00
9:55 AM,-0.4,-7.6,72,30.06,4.0,NW,25.3,35.7,N/A,Snow,Light Snow,320,2013-01-31 15:55:00
10:15 AM,-0.4,-9.4,66,30.08,5.0,NW,25.3,32.2,N/A,,Freezing Rain,320,2013-01-31 16:15:00
10:35 AM,-0.4,-9.4,66,30.08,8.0,NW,27.6,-,N/A,,Partly Cloudy,310,2013-01-31 16:35:00
10:55 AM,1.4,-7.6,66,30.09,10.0,NW,27.6,34.5,N/A,,Scattered Clouds,310,2013-01-31 16:55:00
11:15 AM,1.4,-9.4,61,30.11,10.0,NW,20.7,33.4,N/A,,Mostly Cloudy,320,2013-01-31 17:15:00
11:35 AM,1.4,-7.6,66,30.11,9.0,WNW,24.2,33.4,N/A,,Scattered Clouds,300,2013-01-31 17:35:00
11:55 AM,1.4,-9.4,61,30.12,8.0,WNW,24.2,32.2,N/A,,Scattered Clouds,300,2013-01-31 17:55:00
12:15 PM,1.4,-7.6,66,30.13,4.0,WNW,28.8,36.8,N/A,,Freezing Rain,300,2013-01-31 18:15:00
12:35 PM,1.4,-7.6,66,30.13,6.0,NW,25.3,33.4,N/A,,Haze,310,2013-01-31 18:35:00
12:55 PM,1.4,-9.4,61,30.14,8.0,WNW,26.5,34.5,N/A,,Scattered Clouds,300,2013-01-31 18:55:00
1:15 PM,1.4,-9.4,61,30.14,5.0,NW,31.1,-,N/A,,Freezing Rain,310,2013-01-31 19:15:00
1:35 PM,1.4,-9.4,61,30.14,7.0,NW,29.9,36.8,N/A,,Scattered Clouds,310,2013-01-31 19:35:00
1:55 PM,3.2,-9.4,56,30.15,7.0,NW,28.8,38.0,N/A,,Scattered Clouds,310,2013-01-31 19:55:00
2:15 PM,3.2,-7.6,61,30.15,7.0,NW,27.6,35.7,N/A,,Mostly Cloudy,310,2013-01-31 20:15:00
2:35 PM,3.2,-7.6,61,30.15,10.0,NW,25.3,35.7,N/A,,Scattered Clouds,310,2013-01-31 20:35:00
2:55 PM,3.2,-7.6,61,30.16,10.0,NW,27.6,34.5,N/A,,Mostly Cloudy,310,2013-01-31 20:55:00
3:15 PM,3.2,-9.4,56,30.18,10.0,NW,28.8,-,N/A,,Mostly Cloudy,320,2013-01-31 21:15:00
3:35 PM,3.2,-9.4,56,30.18,10.0,NW,25.3,32.2,N/A,,Scattered Clouds,310,2013-01-31 21:35:00
3:55 PM,3.2,-9.4,56,30.19,10.0,NW,31.1,-,N/A,,Mostly Cloudy,310,2013-01-31 21:55:00
4:15 PM,3.2,-9.4,56,30.19,10.0,NW,21.9,29.9,N/A,,Scattered Clouds,310,2013-01-31 22:15:00
4:35 PM,1.4,-9.4,61,30.20,10.0,NW,21.9,32.2,N/A,,Scattered Clouds,320,2013-01-31 22:35:00
4:55 PM,1.4,-9.4,61,30.21,10.0,NW,21.9,-,N/A,,Scattered Clouds,310,2013-01-31 22:55:00
5:15 PM,-0.4,-9.4,66,30.22,10.0,NW,24.2,-,N/A,,Scattered Clouds,310,2013-01-31 23:15:00
5:35 PM,-0.4,-9.4,66,30.22,10.0,NW,23.0,-,N/A,,Mostly Cloudy,310,2013-01-31 23:35:00
6:15 PM,-0.4,-9.4,66,30.23,10.0,NW,19.6,25.3,N/A,,Mostly Cloudy,310,2013-02-01 00:15:00
6:35 PM,-2.2,-11.2,66,30.24,10.0,WNW,20.7,26.5,N/A,,Scattered Clouds,300,2013-02-01 00:35:00
7:15 PM,-2.2,-11.2,66,30.26,10.0,WNW,20.7,-,N/A,,Mostly Cloudy,290,2013-02-01 01:15:00
7:35 PM,-2.2,-11.2,66,30.27,10.0,WNW,21.9,28.8,N/A,,Partly Cloudy,300,2013-02-01 01:35:00
7:55 PM,-4.0,-11.2,71,30.27,10.0,WNW,23.0,29.9,N/A,,Partly Cloudy,300,2013-02-01 01:55:00
8:15 PM,-4.0,-13.0,65,30.27,10.0,WNW,20.7,27.6,N/A,,Partly Cloudy,300,2013-02-01 02:15:00
8:35 PM,-4.0,-11.2,71,30.28,10.0,WNW,18.4,25.3,N/A,,Clear,300,2013-02-01 02:35:00
8:55 PM,-4.0,-13.0,65,30.28,9.0,WNW,18.4,24.2,N/A,,Clear,300,2013-02-01 02:55:00
9:15 PM,-4.0,-13.0,65,30.29,10.0,WNW,15.0,23.0,N/A,,Partly Cloudy,290,2013-02-01 03:15:00
9:35 PM,-4.0,-13.0,65,30.29,10.0,WNW,16.1,-,N/A,,Clear,300,2013-02-01 03:35:00
9:55 PM,-5.8,-13.0,71,30.29,10.0,NW,17.3,-,N/A,,Clear,310,2013-02-01 03:55:00
10:15 PM,-5.8,-14.8,65,30.29,10.0,NW,19.6,26.5,N/A,,Clear,310,2013-02-01 04:15:00
10:35 PM,-5.8,-14.8,65,30.29,10.0,WNW,18.4,-,N/A,,Clear,300,2013-02-01 04:35:00
10:55 PM,-5.8,-14.8,65,30.30,10.0,WNW,19.6,26.5,N/A,,Clear,300,2013-02-01 04:55:00
11:15 PM,-5.8,-14.8,65,30.30,10.0,WNW,16.1,21.9,N/A,,Clear,300,2013-02-01 05:15:00
11:35 PM,-5.8,-14.8,65,30.30,10.0,WNW,19.6,-,N/A,,Clear,300,2013-02-01 05:35:00